Location: Rio de Janeiro
(22.9068°S, 43.1729°W)
Time: 14:36:34
(UTC-03:00)

Tiangong - Pass Details

Date: 09 December 2023
Orbit: 380 x 385 km, 41.5° (Epoch: 13 June)

Event Time Altitude Azimuth Distance (km) Brightness Sun altitude
Rises 20:22:20 0° 267° (W) 2,311 2.6 -22.7°
Reaches altitude 10° 20:25:16 10° 239° (WSW) 1,445 1.8 -23.3°
Maximum altitude 20:26:58 13° 207° (SSW) 1,256 1.3 -23.5°
Drops below altitude 10° 20:28:35 10° 177° (S) 1,423 1.2 -23.8°
Enters shadow 20:30:56 - 151° (SSE) 2,075 1.7 -24.2°
